| time (UTC) | temp C | wind direction | speed KPH | gust KPH | rain 1hr cm | rain 24hr cm | rain mn cm | humidity % | barometer mb |
| 20260508110020 | 13 | 354 | 12.9 | 25.7 | 0.00 | 0.00 | 0.00 | 22 | 1025.7 |
| 20260508105019 | 13 | 329 | 12.9 | 25.7 | 0.00 | 0.00 | 0.00 | 22 | 1025.7 |
| 20260508104038 | 13 | 342 | 11.3 | 25.7 | 0.00 | 0.00 | 0.00 | 22 | 1025.8 |
| 20260508103017 | 12 | 336 | 12.9 | 25.7 | 0.00 | 0.00 | 0.00 | 23 | 1025.8 |
| 20260508102046 | 12 | 336 | 12.9 | 29.0 | 0.00 | 0.00 | 0.00 | 23 | 1025.7 |
| 20260508101044 | 12 | 334 | 14.5 | 29.0 | 0.00 | 0.00 | 0.00 | 24 | 1025.7 |
| 20260508100103 | 12 | 335 | 14.5 | 30.6 | 0.00 | 0.00 | 0.00 | 24 | 1025.6 |
| 20260508095041 | 12 | 333 | 16.1 | 30.6 | 0.00 | 0.00 | 0.00 | 25 | 1025.6 |
| 20260508094042 | 12 | 328 | 11.3 | 24.1 | 0.00 | 0.00 | 0.00 | 24 | 1025.6 |
| 20260508093101 | 12 | 335 | 9.7 | 22.5 | 0.00 | 0.00 | 0.00 | 26 | 1025.6 |
| 20260508092100 | 12 | 320 | 11.3 | 25.7 | 0.00 | 0.00 | 0.00 | 28 | 1025.6 |
| 20260508091059 | 11 | 340 | 12.9 | 22.5 | 0.00 | 0.00 | 0.00 | 28 | 1025.6 |
| 20260508090057 | 11 | 1 | 11.3 | 22.5 | 0.00 | 0.00 | 0.00 | 29 | 1025.7 |
| 20260508085036 | 11 | 346 | 11.3 | 22.5 | 0.00 | 0.00 | 0.00 | 28 | 1025.7 |
| 20260508084036 | 11 | 335 | 11.3 | 22.5 | 0.00 | 0.00 | 0.00 | 31 | 1025.7 |
| 20260508083055 | 11 | 352 | 11.3 | 22.5 | 0.00 | 0.00 | 0.00 | 31 | 1025.7 |
| 20260508082034 | 11 | 337 | 12.9 | 22.5 | 0.00 | 0.00 | 0.00 | 33 | 1025.7 |
| 20260508081036 | 11 | 332 | 9.7 | 24.1 | 0.00 | 0.00 | 0.00 | 31 | 1025.7 |
| 20260508080031 | 11 | 327 | 9.7 | 20.9 | 0.00 | 0.00 | 0.00 | 33 | 1025.7 |
| 20260508075031 | 11 | 320 | 11.3 | 20.9 | 0.00 | 0.00 | 0.00 | 34 | 1025.6 |
| 20260508074031 | 10 | 320 | 11.3 | 20.9 | 0.00 | 0.00 | 0.00 | 36 | 1025.5 |
| 20260508073029 | 10 | 334 | 11.3 | 20.9 | 0.00 | 0.00 | 0.00 | 36 | 1025.4 |
| 20260508072028 | 10 | 324 | 11.3 | 19.3 | 0.00 | 0.00 | 0.00 | 37 | 1025.4 |
| 20260508071047 | 9 | 355 | 11.3 | 19.3 | 0.00 | 0.00 | 0.00 | 38 | 1025.3 |
| 20260508070026 | 9 | 324 | 11.3 | 19.3 | 0.00 | 0.00 | 0.00 | 39 | 1025.3 |
| 20260508065044 | 9 | 342 | 11.3 | 20.9 | 0.00 | 0.00 | 0.00 | 40 | 1025.2 |
| 20260508064025 | 8 | 339 | 11.3 | 17.7 | 0.00 | 0.00 | 0.00 | 41 | 1025.1 |
| 20260508063044 | 8 | 344 | 11.3 | 19.3 | 0.00 | 0.00 | 0.00 | 42 | 1025.0 |
| 20260508062043 | 8 | 338 | 11.3 | 17.7 | 0.00 | 0.00 | 0.00 | 43 | 1024.9 |
| 20260508061021 | 7 | 344 | 11.3 | 17.7 | 0.00 | 0.00 | 0.00 | 45 | 1024.8 |
| 20260508060020 | 7 | 346 | 9.7 | 16.1 | 0.00 | 0.00 | 0.00 | 47 | 1024.7 |
| 20260508055019 | 7 | 343 | 9.7 | 19.3 | 0.00 | 0.00 | 0.00 | 48 | 1024.6 |
| 20260508054038 | 6 | 349 | 9.7 | 19.3 | 0.00 | 0.00 | 0.00 | 49 | 1024.5 |
| 20260508053016 | 6 | 339 | 8.0 | 16.1 | 0.00 | 0.00 | 0.00 | 50 | 1024.5 |
| 20260508052017 | 6 | 343 | 9.7 | 16.1 | 0.00 | 0.00 | 0.00 | 52 | 1024.3 |
| 20260508051046 | 6 | 334 | 9.7 | 16.1 | 0.00 | 0.00 | 0.00 | 54 | 1024.2 |
| 20260508050045 | 6 | 340 | 8.0 | 16.1 | 0.00 | 0.00 | 0.00 | 55 | 1024.1 |
| 20260508045044 | 5 | 335 | 8.0 | 16.1 | 0.00 | 0.00 | 0.00 | 56 | 1024.0 |
| 20260508044042 | 5 | 341 | 8.0 | 12.9 | 0.00 | 0.00 | 0.00 | 56 | 1023.8 |
| 20260508043040 | 5 | 334 | 8.0 | 12.9 | 0.00 | 0.00 | 0.00 | 57 | 1023.8 |
| 20260508042039 | 4 | 333 | 8.0 | 11.3 | 0.00 | 0.00 | 0.00 | 58 | 1023.7 |
| 20260508041038 | 3 | 332 | 6.4 | 12.9 | 0.00 | 0.00 | 0.00 | 60 | 1023.6 |
| 20260508040037 | 3 | 328 | 4.8 | 9.7 | 0.00 | 0.00 | 0.00 | 62 | 1023.5 |
| 20260508035036 | 3 | 319 | 4.8 | 8.0 | 0.00 | 0.00 | 0.00 | 64 | 1023.4 |
| 20260508034035 | 3 | 309 | 4.8 | 8.0 | 0.00 | 0.00 | 0.00 | 66 | 1023.3 |
| 20260508033035 | 2 | 312 | 4.8 | 8.0 | 0.00 | 0.00 | 0.00 | 67 | 1023.1 |
| 20260508032034 | 2 | 311 | 4.8 | 8.0 | 0.00 | 0.00 | 0.00 | 66 | 1023.0 |
| 20260508031033 | 2 | 318 | 6.4 | 11.3 | 0.00 | 0.00 | 0.00 | 67 | 1022.9 |
| 20260508030032 | 2 | 316 | 4.8 | 8.0 | 0.00 | 0.00 | 0.00 | 67 | 1022.9 |
| 20260508025030 | 1 | 308 | 4.8 | 8.0 | 0.00 | 0.00 | 0.00 | 68 | 1022.8 |
| 20260508024031 | 2 | 306 | 4.8 | 8.0 | 0.00 | 0.00 | 0.00 | 67 | 1022.6 |
| 20260508023030 | 2 | 307 | 4.8 | 8.0 | 0.00 | 0.00 | 0.00 | 68 | 1022.5 |
| 20260508022029 | 2 | 307 | 4.8 | 9.7 | 0.00 | 0.00 | 0.00 | 67 | 1022.3 |
| 20260508021028 | 2 | 316 | 6.4 | 11.3 | 0.00 | 0.00 | 0.00 | 65 | 1022.2 |
| 20260508020026 | 2 | 321 | 6.4 | 9.7 | 0.00 | 0.00 | 0.00 | 64 | 1022.1 |
| 20260508015027 | 2 | 327 | 6.4 | 11.3 | 0.00 | 0.00 | 0.00 | 62 | 1022.0 |
| 20260508014045 | 2 | 321 | 6.4 | 14.5 | 0.00 | 0.00 | 0.00 | 63 | 1021.9 |
| 20260508013023 | 3 | 326 | 8.0 | 12.9 | 0.00 | 0.00 | 0.00 | 60 | 1021.8 |
| 20260508012022 | 3 | 327 | 6.4 | 11.3 | 0.00 | 0.00 | 0.00 | 59 | 1021.7 |
| 20260508011021 | 3 | 324 | 8.0 | 11.3 | 0.00 | 0.00 | 0.00 | 58 | 1021.6 |
| 20260508010040 | 3 | 329 | 6.4 | 11.3 | 0.00 | 0.00 | 0.00 | 58 | 1021.4 |
| 20260508005019 | 3 | 328 | 8.0 | 12.9 | 0.00 | 0.00 | 0.00 | 58 | 1021.3 |
| 20260508004018 | 3 | 330 | 8.0 | 14.5 | 0.00 | 0.00 | 0.00 | 57 | 1021.2 |
| 20260508003038 | 3 | 338 | 9.7 | 16.1 | 0.00 | 0.00 | 0.00 | 56 | 1021.1 |
| 20260508002037 | 3 | 339 | 9.7 | 16.1 | 0.00 | 0.00 | 0.00 | 55 | 1021.0 |
| 20260508001106 | 3 | 336 | 9.7 | 17.7 | 0.00 | 0.00 | 0.00 | 55 | 1020.8 |
| 20260508000105 | 4 | 336 | 9.7 | 17.7 | 0.00 | 0.00 | 0.00 | 56 | 1020.7 |
| 20260507235043 | 4 | 331 | 8.0 | 16.1 | 0.00 | 0.00 | 0.00 | 57 | 1020.6 |
| 20260507234042 | 4 | 316 | 8.0 | 14.5 | 0.00 | 0.00 | 0.00 | 56 | 1020.5 |
| 20260507233041 | 4 | 318 | 6.4 | 12.9 | 0.00 | 0.00 | 0.00 | 56 | 1020.4 |
| 20260507232042 | 4 | 324 | 6.4 | 11.3 | 0.00 | 0.00 | 0.00 | 55 | 1020.3 |
| 20260507231040 | 5 | 325 | 6.4 | 12.9 | 0.00 | 0.00 | 0.00 | 55 | 1020.2 |
| 20260507230039 | 5 | 327 | 6.4 | 12.9 | 0.00 | 0.00 | 0.00 | 57 | 1020.0 |
| 20260507225038 | 5 | 321 | 4.8 | 12.9 | 0.00 | 0.00 | 0.00 | 58 | 1019.9 |
| 20260507224036 | 5 | 314 | 4.8 | 14.5 | 0.00 | 0.00 | 0.00 | 57 | 1019.8 |
| 20260507223037 | 5 | 314 | 3.2 | 11.3 | 0.00 | 0.00 | 0.00 | 56 | 1019.7 |
| 20260507222056 | 5 | 314 | 4.8 | 9.7 | 0.00 | 0.00 | 0.00 | 53 | 1019.6 |
| 20260507221035 | 5 | 311 | 4.8 | 12.9 | 0.00 | 0.00 | 0.00 | 52 | 1019.5 |
| 20260507220033 | 5 | 306 | 4.8 | 12.9 | 0.00 | 0.00 | 0.00 | 51 | 1019.4 |
| 20260507215033 | 6 | 302 | 4.8 | 9.7 | 0.00 | 0.00 | 0.00 | 51 | 1019.3 |
| 20260507214031 | 6 | 301 | 4.8 | 9.7 | 0.00 | 0.00 | 0.00 | 50 | 1019.2 |
| 20260507213050 | 6 | 299 | 4.8 | 9.7 | 0.00 | 0.00 | 0.00 | 48 | 1019.0 |
| 20260507212030 | 6 | 299 | 6.4 | 14.5 | 0.00 | 0.00 | 0.00 | 47 | 1018.9 |
| 20260507211028 | 6 | 304 | 6.4 | 17.7 | 0.00 | 0.00 | 0.00 | 45 | 1018.7 |
| 20260507210027 | 6 | 302 | 6.4 | 16.1 | 0.00 | 0.00 | 0.00 | 44 | 1018.6 |
| 20260507205026 | 7 | 306 | 6.4 | 16.1 | 0.00 | 0.00 | 0.00 | 43 | 1018.5 |
| 20260507204025 | 7 | 310 | 6.4 | 11.3 | 0.00 | 0.00 | 0.00 | 42 | 1018.4 |
| 20260507203024 | 7 | 299 | 6.4 | 12.9 | 0.00 | 0.00 | 0.00 | 40 | 1018.2 |
| 20260507202023 | 7 | 304 | 6.4 | 16.1 | 0.00 | 0.00 | 0.00 | 38 | 1018.1 |
| 20260507201022 | 8 | 312 | 8.0 | 20.9 | 0.00 | 0.00 | 0.00 | 36 | 1018.0 |
| 20260507200021 | 8 | 311 | 9.7 | 20.9 | 0.00 | 0.00 | 0.00 | 35 | 1017.8 |
| 20260507195021 | 8 | 311 | 9.7 | 20.9 | 0.00 | 0.00 | 0.00 | 35 | 1017.7 |
| 20260507194020 | 8 | 320 | 6.4 | 16.1 | 0.00 | 0.00 | 0.00 | 35 | 1017.6 |
| 20260507193018 | 8 | 324 | 8.0 | 14.5 | 0.00 | 0.00 | 0.00 | 34 | 1017.4 |
| 20260507192037 | 8 | 328 | 6.4 | 14.5 | 0.00 | 0.00 | 0.00 | 34 | 1017.3 |
| 20260507191016 | 8 | 331 | 8.0 | 14.5 | 0.00 | 0.00 | 0.00 | 33 | 1017.1 |
| 20260507190047 | 9 | 329 | 9.7 | 20.9 | 0.00 | 0.00 | 0.00 | 31 | 1016.9 |
| 20260507185045 | 9 | 322 | 11.3 | 22.5 | 0.00 | 0.00 | 0.00 | 30 | 1016.8 |
| 20260507184044 | 10 | 310 | 8.0 | 22.5 | 0.00 | 0.00 | 0.00 | 29 | 1016.6 |
| 20260507183043 | 8 | 308 | 3.2 | 9.7 | 0.00 | 0.00 | 0.00 | 30 | 1016.6 |
| 20260507182042 | 8 | 243 | 4.8 | 11.3 | 0.00 | 0.00 | 0.00 | 28 | 1016.5 |
| 20260507181040 | 9 | 189 | 6.4 | 12.9 | 0.00 | 0.00 | 0.00 | 26 | 1016.2 |
| 20260507180040 | 9 | 171 | 8.0 | 12.9 | 0.00 | 0.00 | 0.00 | 26 | 1016.1 |
| 20260507175038 | 10 | 170 | 8.0 | 14.5 | 0.00 | 0.00 | 0.00 | 26 | 1016.0 |
| 20260507174037 | 10 | 176 | 9.7 | 19.3 | 0.00 | 0.00 | 0.00 | 25 | 1015.9 |
| 20260507173036 | 10 | 171 | 9.7 | 19.3 | 0.00 | 0.00 | 0.00 | 24 | 1015.8 |
| 20260507172035 | 10 | 165 | 9.7 | 20.9 | 0.00 | 0.00 | 0.00 | 24 | 1015.7 |
| 20260507171036 | 10 | 164 | 9.7 | 20.9 | 0.00 | 0.00 | 0.00 | 24 | 1015.6 |
| 20260507170035 | 11 | 162 | 11.3 | 19.3 | 0.00 | 0.00 | 0.00 | 24 | 1015.6 |
| 20260507165033 | 11 | 182 | 11.3 | 22.5 | 0.00 | 0.00 | 0.00 | 24 | 1015.5 |
| 20260507164032 | 11 | 183 | 12.9 | 22.5 | 0.00 | 0.00 | 0.00 | 24 | 1015.4 |
| 20260507163050 | 11 | 179 | 14.5 | 25.7 | 0.00 | 0.00 | 0.00 | 23 | 1015.3 |
| 20260507162029 | 11 | 179 | 14.5 | 25.7 | 0.00 | 0.00 | 0.00 | 23 | 1015.2 |
| 20260507161030 | 12 | 188 | 14.5 | 27.4 | 0.00 | 0.00 | 0.00 | 23 | 1015.1 |
| 20260507160029 | 12 | 192 | 16.1 | 25.7 | 0.00 | 0.00 | 0.00 | 23 | 1015.0 |
| 20260507155047 | 12 | 194 | 14.5 | 25.7 | 0.00 | 0.00 | 0.00 | 23 | 1014.9 |
| 20260507154026 | 12 | 195 | 12.9 | 20.9 | 0.00 | 0.00 | 0.00 | 23 | 1015.0 |
| 20260507153045 | 12 | 206 | 12.9 | 20.9 | 0.00 | 0.00 | 0.00 | 23 | 1014.9 |
| 20260507152023 | 13 | 196 | 11.3 | 22.5 | 0.00 | 0.00 | 0.00 | 21 | 1014.9 |
| 20260507151022 | 12 | 177 | 8.0 | 20.9 | 0.00 | 0.00 | 0.00 | 23 | 1014.8 |
| 20260507150041 | 12 | 173 | 11.3 | 22.5 | 0.00 | 0.00 | 0.00 | 23 | 1014.9 |
| 20260507145020 | 13 | 88 | 3.2 | 9.7 | 0.00 | 0.00 | 0.00 | 16 | 1014.9 |
| 20260507144018 | 13 | 339 | 4.8 | 12.9 | 0.00 | 0.00 | 0.00 | 17 | 1014.8 |
| 20260507143020 | 13 | 297 | 8.0 | 14.5 | 0.00 | 0.00 | 0.00 | 17 | 1014.8 |
| 20260507142018 | 13 | 279 | 6.4 | 12.9 | 0.00 | 0.00 | 0.00 | 17 | 1014.8 |
| 20260507141037 | 13 | 269 | 8.0 | 12.9 | 0.00 | 0.00 | 0.00 | 17 | 1014.7 |
| 20260507140046 | 13 | 243 | 6.4 | 12.9 | 0.00 | 0.00 | 0.00 | 18 | 1014.7 |
| 20260507135045 | 13 | 257 | 6.4 | 12.9 | 0.00 | 0.00 | 0.00 | 17 | 1014.7 |
| 20260507134044 | 13 | 274 | 8.0 | 14.5 | 0.00 | 0.00 | 0.00 | 17 | 1014.7 |
| 20260507133043 | 13 | 266 | 6.4 | 14.5 | 0.00 | 0.00 | 0.00 | 18 | 1014.7 |
| 20260507132043 | 13 | 285 | 8.0 | 16.1 | 0.00 | 0.00 | 0.00 | 18 | 1014.7 |
| 20260507131041 | 13 | 303 | 11.3 | 17.7 | 0.00 | 0.00 | 0.00 | 18 | 1014.8 |
| 20260507130040 | 13 | 302 | 6.4 | 17.7 | 0.00 | 0.00 | 0.00 | 18 | 1014.8 |
| 20260507125059 | 13 | 290 | 9.7 | 16.1 | 0.00 | 0.00 | 0.00 | 19 | 1014.8 |
| 20260507124038 | 13 | 297 | 6.4 | 17.7 | 0.00 | 0.00 | 0.00 | 18 | 1014.8 |
| 20260507123037 | 13 | 289 | 9.7 | 17.7 | 0.00 | 0.00 | 0.00 | 20 | 1014.8 |
| 20260507122037 | 12 | 309 | 8.0 | 16.1 | 0.00 | 0.00 | 0.00 | 20 | 1014.8 |
| 20260507121058 | 13 | 326 | 8.0 | 14.5 | 0.00 | 0.00 | 0.00 | 20 | 1014.8 |
| 20260507120055 | 13 | 294 | 8.0 | 16.1 | 0.00 | 0.00 | 0.00 | 21 | 1014.8 |
| 20260507115053 | 12 | 281 | 9.7 | 16.1 | 0.00 | 0.00 | 0.00 | 20 | 1014.8 |
| 20260507114032 | 12 | 251 | 8.0 | 14.5 | 0.00 | 0.00 | 0.00 | 20 | 1014.8 |
| 20260507113031 | 12 | 296 | 9.7 | 20.9 | 0.00 | 0.00 | 0.00 | 20 | 1014.8 |
| 20260507112030 | 13 | 271 | 8.0 | 20.9 | 0.00 | 0.00 | 0.00 | 21 | 1014.8 |
| 20260507111029 | 12 | 274 | 8.0 | 16.1 | 0.00 | 0.00 | 0.00 | 21 | 1014.9 |